Regional Weather Roundup
Issued by NWS Newport/Morehead, NC

Current Version | Previous Version | Graphics & Text | Print | Product List | Glossary On
Versions: 1 2 3 4 5 6 7 8 9 10 11 12 13 14 15 16 17 18 19 20 21 22 23 24 25 26 27 28 29 30 31 32 33 34 35 36 37 38 39 40 41 42 43 44 45 46 47 48 49 50
000 ASUS42 KMHX 230825 RWRMHX WEATHER ROUNDUP FOR EASTERN NORTH CAROLINA NATIONAL WEATHER SERVICE NEWPORT/MOREHEAD CITY NC 400 AM EDT SAT JUL 23 2016 NOTE: "FAIR" INDICATES FEW OR NO CLOUDS BELOW 12,000 FEET WITH NO SIGNIFICANT WEATHER AND/OR OBSTRUCTIONS TO VISIBILITY NCZ015>017-031-032-045>047-102-103-230900- NORTH COAST CITY SKY/WX TMP DP RH WIND PRES REMARKS EDENTON CLEAR 80 71 74 SW9 29.99F ELIZABETH CITY CLEAR 75 70 84 SW9 29.98F KITTY HAWK SUNNY 78 72 81 SW7 29.98F MANTEO N/A 77 75 91 SW10 30.00S $$ NCZ045>047-081-094-103-104-230900- CENTRAL COAST CITY SKY/WX TMP DP RH WIND PRES REMARKS FRISCO MOCLDY 82 74 76 W8 30.01S $$ NCZ095-097-098-100-101-230900- SOUTHERN COAST CITY SKY/WX TMP DP RH WIND PRES REMARKS BEAUFORT CLEAR 81 73 76 W6 30.01S CEDAR ISLAND NOT AVBL JACKSONVILLE CLEAR 74 70 87 SW3 30.00F PINEY ISLAND SUNNY N/A N/A N/A SW7 30.00F WILMINGTON CLEAR 76 73 91 S3 30.01F $$ NCZ011>013-027>030-043-044-078>080-089-090>093-098-230900- COASTAL PLAIN CITY SKY/WX TMP DP RH WIND PRES REMARKS AHOSKIE CLEAR 73 71 94 S3 29.98S CLINTON CLEAR 75 73 92 CALM 30.00F ELIZABETHTOWN PTCLDY 76 73 90 CALM 30.00F GOLDSBORO CLEAR 75 75 100 S3 29.98F GREENVILLE CLEAR 73 72 94 SW3 30.01F HAVELOCK CLEAR 75 71 87 S3 30.02S KENANSVILLE PTCLDY 71 70 95 CALM 30.00F KINSTON CLEAR 73 71 93 S5 30.01S NEW BERN CLEAR 74 71 91 SW5 30.02F RICHLANDS CLEAR 71 70 96 CALM 30.01F ROCKY MOUNT CLEAR 74 72 93 S3 29.99F WASHINGTON CLEAR 75 70 86 SW5 30.00S WHITEVILLE PTCLDY 76 73 90 CALM 30.00F $$ AMZ130-135-150-152-154-156-158-170-250-252-270-ANZ085-086-088-633-658-670-230900- MARINE OBSERVATIONS STATION/POSITION TIME TEMP WIND PRES WAVE SWELL AIR SEA DIR/SP/G HT/PER HT/PER (UTC) (F) (DEG/KT/KT) (MB) (FT/S) (FT/S) CHESAPEAKE LIGHT NOT AVBL 64 E VA BEACH 0750 81 80 230/ 16/ 19 1014.5 4/ 4 2/ 8 DUCK 0800 80 66 230/ 14/ 18 1014.6 2 E DUCK 0741 70 N/A 2/ 8 OREGON INLET 0800 81 85 240/ 12/ 14 1015.6 13E OREGON INLT 0800 81 N/A 2/ 8 2/ 8 HATTERAS CG 0800 80 83 240/ 5/ 7 1015.9 DIAMOND BUOY 0750 83 85 230/ 12/ 14 1016.3 3/ 9 2/ 9 CAPE LOOKOUT 0800 82 230/ 5/ 8 1016.0 BEAUFORT LAB 0800 81 83 240/ 4/ 7 1015.4 30 SE NEW RVR IN 0808 83 85 240/ 8/ 12 1016.3 30 SE NEW RVR IN 0755 85 N/A 3/ 8 27 SE WRIGHTSVLE 0808 84 85 240/ 8/ 12 1016.3 5 SE WRIGHTSVLE 0808 83 83 250/ 8/ 12 1016.8 225 S CAPE HAT 0750 81 84 220/ 4/ 6 1016.9 3/ 9 3/ 9 41 SE CHARLESTON 0750 84 86 230/ 10/ 12 1015.8 3/ 9 2/ 9 $$

USA.gov is the U.S. government's official web portal to all federal, state and local government web resources and services.